Retour au catalogue

RADIO 6

ActifRadio amateurPO
NORAD 13002·PAYLOAD·🇷🇺 Russia

Lancé Dec 17, 1981 depuis Plesetsk Cosmodrome

Loading…

Prochains Passages (prochaines 24 heures)

TLE

FraisSource: Space-Track

Époque: Sep 14, 2026, 11:06 UTC

1 13002U 81120F   26257.46284123  .00000026  00000-0  17616-3 0  9992
2 13002  82.9543 250.2028 0050977 221.3684 307.8112 12.13847945982298

Suivez RADIO 6 en temps réel avec AllMySat

Download on the App Store